Voltar ao catálogo

ONEWEB-0415

AtivoComunicaçõesPO
NORAD 51624·PAYLOAD·🇬🇧 United Kingdom

Lançado Feb 10, 2022 de Guiana Space Centre

Loading…

Próximas Passagens (próximas 24 horas)

TLE

AtualizadoSource: CelesTrak SupGP

Época: Sep 15, 2026, 01:25 UTC

1 51624C 22012C   26258.05918241 -.00000355  00000+0 -10181-2 0  2583
2 51624  87.8900  18.3746 0001405 108.8239   3.2947 13.10366335    19

Acompanhe ONEWEB-0415 em tempo real com AllMySat

Download on the App Store